Location: London
(51.5074°N, 0.1278°W)
Time: 04:47:20
(UTC+01:00)

Envisat - Pass Details

Date: 01 October 2021
Orbit: 764 x 766 km, 98.2° (Epoch: 26 October)

Event Time Altitude Azimuth Distance (km) Brightness Sun altitude
Rises 04:33:11 0° 31° (NNE) 3,244 7.1 -23.2°
Reaches altitude 10° 04:37:23 10° 65° (ENE) 2,310 6.6 -22.6°
Maximum altitude 04:38:59 11° 83° (E) 2,211 6.4 -22.4°
Drops below altitude 10° 04:40:36 10° 102° (ESE) 2,304 6.2 -22.2°
Sets 04:44:44 0° 135° (SE) 3,222 6.5 -21.6°
